星链-11225 (STARLINK-11225)

导读 | 豆包AI

STARLINK-11225是美国SpaceX星链星座的卫星,于2024年8月31日发射入轨。它属于星链低轨互联网星座的扩容卫星,承担全球覆盖卫星宽带通信服务的组网任务,依托近地轨道部署,可为偏远地区、海上与空中用户提供高速网络接入服务,进一步完善星链星座的全球服务覆盖能力与通信容量。

Basic Information
目录编号:
60912
目录名称:
STARLINK-11225
国际标识:
2024-154K
轨道中心:
EARTH
卫星名称:
星链-11225
卫星全名:
星链-11225 (STARLINK-11225)
卫星状态:
在轨 (已飞行632 天)
发射日期:
2024-08-31 UTC
国别 :
美国 (US)
星等 :
--
Orbit Information
数据来源 国际轨道数据 AOE轨道数据
星历时间 2026-05-24T11:07:50+0800
1天前
查看轨道信息
2026-05-19T00:00:00+0800
6天前
查看轨道信息
半长轴 6737.864km 6737.755km
偏心率 0.0001215 0.0002963
轨道倾角 53.159° 53.152°
近地点辐角 76.709° 116.756°
升交点赤经 119.336° 146.273°
平近点角 283.406° 310.043°
近地点 358.908km 357.621km
远地点 360.546km 361.615km
周期 91.737分钟 91.734分钟
每日圈数 15.697102 15.697483
Detailed Information
固有亮度:
5
最大亮度:
2.5
卫星平台:
Starlink V1.0
覆盖范围:
全球
运营商:
太空探索技术公司
运营商所在国:
美国
制造商(研发单位):
太空探索技术公司
制造商所在国:
美国
使用方式:
暂无
Satellite Introduction
Starlink 计划是 SpaceX 推出的全球卫星互联网项目,通过发射低轨道卫星,为全球尤其是偏远地区提供高速、低延迟的互联网服务。自 2019 年起,Starlink 已部署数千颗卫星,旨在缩小全球数字鸿沟,推动互联网普及。该项目还为军事、航空等行业提供通信支持,带来广泛经济效益。
2D Orbit Map
3D Orbit Map
Orbit Altitude Analysis Chart
Orbit Inclination Analysis Chart
Orbit Comprehensive Analysis Chart
View Comprehensive Chart